Prairie Du Chien, WI

4:34 AM CDT on May 27, 2017 (GMT -0500)
Prairie Du Chien Municipal

Weather History for KPDC - November, 2015

Change the Weather History Date:

Saturday, November 21, 2015

  Actual Average Record
Temperature  
Mean Temperature 20 °F -  
Max Temperature 30 °F 42 °F 69 °F (1990)
Min Temperature 11 °F 25 °F -3 °F (1964)
Degree Days  
Heating Degree Days 44    
Moisture  
Dew Point 17 °F    
Average Humidity 75    
Maximum Humidity 93    
Minimum Humidity 58    
Precipitation  
Precipitation 0.00 in - - ()
Sea Level Pressure  
Sea Level Pressure 30.21 in    
Wind  
Wind Speed 6 mph (NW)    
Max Wind Speed 17 mph    
Max Gust Speed 22 mph    
Visibility 8 miles    
Events Snow    
Averages and records for this station are not official NWS values.
T = Trace of Precipitation, MM = Missing Value Source: NWS Daily Summary

Daily Weather History Graph

Daily Weather History Graph

Search for Another Location

Airport or City:

Trip Planner

Search our weather history database for the weather conditions in past years. The results will help you decide how hot, cold, wet, or windy it might be!

Date:

Astronomy

Nov. 21, 2015 Rise Set
Actual Time 7:04 AM CST 4:36 PM CST
Civil Twilight 6:33 AM CST 5:07 PM CST
Nautical Twilight 5:58 AM CST 5:41 PM CST
Astronomical Twilight 5:24 AM CST 6:15 PM CST
Moon 2:12 PM CST (11/21) 1:41 AM CST (11/21)
Length of Visible Light 10h 34m
Length of Day
9h 31m
Waxing Gibbous, 77% of the Moon is Illuminated
Nov 21
Waxing Gibbous
Nov 25
Full
Dec 3
Last Quarter
Dec 11
New
Dec 18
First Quarter

Hourly Weather History & Observations

Time (CST) Temp. Windchill Dew Point Humidity Pressure Visibility Wind Dir Wind Speed Gust Speed Precip Events Conditions
12:10 AM 30.2 °F - 28.4 °F 93% 30.24 in 1.8 mi Calm Calm - N/A Snow Light Snow
12:30 AM 30.0 °F - 28.2 °F 93% 30.24 in 1.5 mi Calm Calm - N/A Snow Light Snow
12:50 AM 30.0 °F - 28.2 °F 93% 30.24 in 1.8 mi Calm Calm - N/A Snow Light Snow
1:10 AM 30.0 °F - 27.9 °F 92% 30.24 in 1.8 mi Calm Calm - N/A Snow Light Snow
1:30 AM 30.0 °F 25.2 °F 27.5 °F 90% 30.23 in 2.5 mi NNW 4.6 mph - N/A Snow Light Snow
1:50 AM 30.0 °F 23.2 °F 27.0 °F 88% 30.24 in 3.0 mi North 6.9 mph - N/A Snow Light Snow
2:10 AM 29.8 °F 24.9 °F 27.1 °F 90% 30.24 in 3.0 mi NNW 4.6 mph - N/A Snow Light Snow
2:30 AM 29.7 °F 21.3 °F 26.2 °F 87% 30.24 in 2.5 mi North 9.2 mph - N/A Snow Light Snow
2:50 AM 28.8 °F 22.6 °F 25.3 °F 87% 30.23 in 2.0 mi North 5.8 mph - N/A Snow Light Snow
3:10 AM 28.2 °F 21.0 °F 24.6 °F 86% 30.24 in 3.0 mi North 6.9 mph - N/A Snow Light Snow
3:30 AM 28.0 °F 22.8 °F 23.7 °F 84% 30.22 in 4.0 mi North 4.6 mph - N/A   Clear
3:50 AM 27.9 °F 21.5 °F 23.2 °F 83% 30.21 in 4.0 mi North 5.8 mph - N/A   Clear
4:10 AM 27.5 °F 19.3 °F 22.1 °F 80% 30.21 in 5.0 mi North 8.1 mph - N/A   Clear
4:30 AM 27.5 °F 20.2 °F 22.1 °F 80% 30.22 in 5.0 mi North 6.9 mph - N/A   Clear
4:50 AM 27.3 °F 23.4 °F 22.3 °F 81% 30.22 in 5.0 mi NNW 3.5 mph - N/A   Clear
5:10 AM 27.3 °F 22.0 °F 22.1 °F 81% 30.22 in 5.0 mi North 4.6 mph - N/A   Clear
5:30 AM 27.3 °F 22.0 °F 22.6 °F 83% 30.20 in 5.0 mi North 4.6 mph - N/A   Clear
5:50 AM 27.3 °F 23.4 °F 23.0 °F 84% 30.21 in 4.0 mi NW 3.5 mph - N/A   Clear
6:10 AM 27.5 °F - 22.5 °F 81% 30.22 in 10.0 mi Calm Calm - N/A   Clear
6:30 AM 27.9 °F 22.6 °F 22.3 °F 80% 30.22 in 10.0 mi NNW 4.6 mph - N/A   Clear
6:50 AM 28.0 °F 21.7 °F 21.2 °F 76% 30.22 in 10.0 mi NNW 5.8 mph - N/A   Clear
7:10 AM 28.0 °F 20.0 °F 19.9 °F 72% 30.22 in 10.0 mi NNW 8.1 mph - N/A   Clear
7:30 AM 27.5 °F 18.6 °F 19.0 °F 71% 30.22 in 10.0 mi NNW 9.2 mph - N/A   Clear
7:50 AM 27.5 °F 18.0 °F 18.5 °F 69% 30.23 in 10.0 mi NNW 10.4 mph - N/A   Clear
8:10 AM 27.5 °F 18.0 °F 18.5 °F 69% 30.23 in 10.0 mi NNW 10.4 mph - N/A   Clear
8:30 AM 27.5 °F 21.1 °F 18.7 °F 69% 30.23 in 10.0 mi NNW 5.8 mph - N/A   Clear
8:50 AM 27.3 °F 19.9 °F 19.2 °F 72% 30.23 in 10.0 mi NNW 6.9 mph - N/A   Clear
9:10 AM 27.3 °F 18.4 °F 19.2 °F 72% 30.22 in 10.0 mi NNW 9.2 mph - N/A   Clear
9:30 AM 27.1 °F 17.5 °F 19.2 °F 72% 30.22 in 10.0 mi NW 10.4 mph - N/A   Clear
9:50 AM 27.1 °F 16.9 °F 19.0 °F 72% 30.22 in 10.0 mi NW 11.5 mph - N/A   Clear
10:10 AM 26.6 °F 15.2 °F 18.5 °F 71% 30.22 in 10.0 mi NW 13.8 mph - N/A   Clear
10:30 AM 26.4 °F 16.0 °F 18.1 °F 71% 30.23 in 10.0 mi NNW 11.5 mph 16.1 mph N/A   Clear
10:50 AM 26.2 °F 15.8 °F 17.6 °F 70% 30.22 in 10.0 mi NNW 11.5 mph 17.3 mph N/A   Clear
11:10 AM 26.6 °F 16.2 °F 18.0 °F 70% 30.21 in 10.0 mi NW 11.5 mph - N/A   Clear
11:30 AM 27.3 °F 16.6 °F 17.2 °F 66% 30.20 in 10.0 mi NW 12.7 mph - N/A   Clear
11:50 AM 27.5 °F 16.8 °F 17.4 °F 66% 30.19 in 10.0 mi NW 12.7 mph 17.3 mph N/A   Clear
12:10 PM 27.5 °F 16.8 °F 17.1 °F 65% 30.18 in 10.0 mi NNW 12.7 mph 18.4 mph N/A   Clear
12:30 PM 28.2 °F 18.9 °F 17.8 °F 65% 30.18 in 10.0 mi NW 10.4 mph 16.1 mph N/A   Clear
12:50 PM 28.2 °F 16.8 °F 16.9 °F 63% 30.17 in 10.0 mi WNW 15.0 mph - N/A   Scattered Clouds
1:10 PM 28.2 °F 17.2 °F 15.8 °F 60% 30.17 in 10.0 mi NW 13.8 mph 17.3 mph N/A   Clear
1:30 PM 27.9 °F 16.3 °F 16.0 °F 61% 30.16 in 10.0 mi WNW 15.0 mph - N/A   Clear
1:50 PM 27.5 °F 16.8 °F 16.0 °F 62% 30.16 in 10.0 mi WNW 12.7 mph 17.3 mph N/A   Clear
2:10 PM 27.9 °F 16.3 °F 14.7 °F 58% 30.16 in 10.0 mi WNW 15.0 mph - N/A   Clear
2:30 PM 27.3 °F 14.8 °F 15.1 °F 60% 30.17 in 10.0 mi WNW 17.3 mph 20.7 mph N/A   Clear
2:50 PM 26.8 °F 15.4 °F 15.4 °F 62% 30.17 in 10.0 mi West 13.8 mph 20.7 mph N/A   Clear
3:10 PM 25.9 °F 12.9 °F 15.1 °F 64% 30.18 in 10.0 mi WNW 17.3 mph - N/A   Clear
3:30 PM 25.7 °F 13.5 °F 14.2 °F 62% 30.18 in 10.0 mi WNW 15.0 mph 21.9 mph N/A   Clear
3:50 PM 25.3 °F 14.7 °F 13.6 °F 61% 30.18 in 10.0 mi NW 11.5 mph 20.7 mph N/A   Clear
4:10 PM 25.3 °F 13.6 °F 12.7 °F 59% 30.18 in 10.0 mi WNW 13.8 mph - N/A   Clear
4:30 PM 24.3 °F 12.2 °F 13.1 °F 63% 30.19 in 10.0 mi WNW 13.8 mph - N/A   Clear
4:50 PM 23.2 °F 14.1 °F 12.6 °F 64% 30.19 in 10.0 mi WNW 8.1 mph - N/A   Clear
5:10 PM 23.0 °F 13.1 °F 12.6 °F 64% 30.19 in 10.0 mi West 9.2 mph - N/A   Clear
5:30 PM 20.7 °F 10.2 °F 12.7 °F 71% 30.19 in 10.0 mi West 9.2 mph - N/A   Clear
5:50 PM 20.1 °F 9.5 °F 12.6 °F 73% 30.19 in 10.0 mi WNW 9.2 mph - N/A   Clear
6:10 PM 18.5 °F 10.4 °F 12.0 °F 76% 30.20 in 10.0 mi WNW 5.8 mph - N/A   Clear
6:30 PM 18.0 °F 12.7 °F 11.3 °F 75% 30.20 in 10.0 mi WNW 3.5 mph - N/A   Clear
6:50 PM 17.8 °F 8.5 °F 10.9 °F 75% 30.20 in 10.0 mi NW 6.9 mph - N/A   Clear
7:10 PM 18.3 °F 8.2 °F 10.9 °F 73% 30.20 in 10.0 mi NW 8.1 mph - N/A   Clear
7:30 PM 17.6 °F 9.3 °F 10.8 °F 75% 30.21 in 10.0 mi NW 5.8 mph - N/A   Clear
7:50 PM 16.5 °F - 10.4 °F 77% 30.21 in 10.0 mi Calm Calm - N/A   Clear
8:10 PM 16.0 °F 8.8 °F 10.0 °F 77% 30.21 in 10.0 mi WNW 4.6 mph - N/A   Clear
8:30 PM 15.4 °F 8.1 °F 9.7 °F 78% 30.21 in 10.0 mi NW 4.6 mph - N/A   Clear
8:50 PM 15.8 °F 5.1 °F 9.9 °F 77% 30.21 in 10.0 mi West 8.1 mph - N/A   Clear
9:10 PM 15.4 °F 3.0 °F 9.9 °F 79% 30.21 in 10.0 mi West 10.4 mph - N/A   Clear
9:30 PM 14.0 °F 6.5 °F 9.0 °F 80% 30.21 in 10.0 mi WSW 4.6 mph - N/A   Clear
9:50 PM 14.0 °F 8.2 °F 10.2 °F 85% 30.21 in 10.0 mi SW 3.5 mph - N/A   Clear
10:10 PM 14.0 °F 8.2 °F 9.3 °F 82% 30.20 in 10.0 mi SW 3.5 mph - N/A   Clear
10:30 PM 12.6 °F 6.5 °F 9.0 °F 85% 30.19 in 10.0 mi WNW 3.5 mph - N/A   Clear
10:50 PM 12.2 °F - 8.4 °F 85% 30.19 in 10.0 mi Calm Calm - N/A   Clear
11:10 PM 11.5 °F 5.3 °F 8.6 °F 88% 30.19 in 10.0 mi West 3.5 mph - N/A   Clear
11:30 PM 11.8 °F 3.9 °F 7.9 °F 84% 30.20 in 10.0 mi West 4.6 mph - N/A   Clear
11:50 PM 11.1 °F 1.7 °F 6.6 °F 82% 30.20 in 10.0 mi WNW 5.8 mph - N/A   Clear